East Hartford, CT

4:45 AM EST on December 07, 2016 (GMT -0500)
Hartford-brainard

Weather History for KHFD - June, 2013

Change the Weather History Date:

Wednesday, June 12, 2013

  Actual Average Record
Temperature  
Mean Temperature 66 °F -  
Max Temperature 73 °F 79 °F 96 °F (1984)
Min Temperature 59 °F 54 °F 39 °F (1980)
Cooling Degree Days 2    
Growing Degree Days 16 (Base 50)    
Moisture  
Dew Point 51 °F    
Average Humidity 59    
Maximum Humidity 81    
Minimum Humidity 44    
Precipitation  
Precipitation 0.00 in - - ()
Sea Level Pressure  
Sea Level Pressure 29.73 in    
Wind  
Wind Speed 9 mph (NW)    
Max Wind Speed 16 mph    
Max Gust Speed 31 mph    
Visibility 10 miles    
Events      
Averages and records for this station are not official NWS values.
T = Trace of Precipitation, MM = Missing Value Source: NWS Daily Summary

Daily Weather History Graph

Daily Weather History Graph

Search for Another Location

Airport or City:

Trip Planner

Search our weather history database for the weather conditions in past years. The results will help you decide how hot, cold, wet, or windy it might be!

Date:

Astronomy

Jun. 12, 2013 Rise Set
Actual Time 5:15 AM EDT 8:25 PM EDT
Civil Twilight 4:41 AM EDT 8:59 PM EDT
Nautical Twilight 3:57 AM EDT 9:43 PM EDT
Astronomical Twilight 3:05 AM EDT 10:36 PM EDT
Moon 8:54 AM EDT (6/12) 10:57 PM EDT (6/12)
Length of Visible Light 16h 18m
Length of Day
15h 10m
Waxing Crescent, 14% of the Moon is Illuminated
Jun 12
Waxing Crescent
Jun 16
First Quarter
Jun 23
Full
Jun 30
Last Quarter
Jul 8
New

Hourly Weather History & Observations

Time (EDT) Temp. Dew Point Humidity Pressure Visibility Wind Dir Wind Speed Gust Speed Precip Events Conditions
12:53 AM 64.9 °F 55.0 °F 70% 29.64 in 10.0 mi West 4.6 mph - N/A   Clear
1:53 AM 64.9 °F 55.0 °F 70% 29.64 in 10.0 mi West 8.1 mph - N/A   Clear
2:53 AM 63.0 °F 55.0 °F 75% 29.64 in 10.0 mi WNW 5.8 mph - N/A   Scattered Clouds
3:53 AM 63.0 °F 52.0 °F 67% 29.63 in 10.0 mi WNW 9.2 mph - N/A   Clear
4:53 AM 64.0 °F 51.1 °F 63% 29.65 in 10.0 mi WNW 16.1 mph 24.2 mph N/A   Clear
5:53 AM 63.0 °F 51.1 °F 65% 29.66 in 10.0 mi WNW 10.4 mph 19.6 mph N/A   Clear
6:53 AM 63.0 °F 51.1 °F 65% 29.69 in 10.0 mi NW 10.4 mph 24.2 mph N/A   Scattered Clouds
7:53 AM 64.0 °F 52.0 °F 65% 29.70 in 10.0 mi NW 11.5 mph 23.0 mph N/A   Mostly Cloudy
8:53 AM 66.9 °F 52.0 °F 59% 29.70 in 10.0 mi WNW 12.7 mph 23.0 mph N/A   Clear
9:53 AM 66.9 °F 52.0 °F 59% 29.71 in 10.0 mi NNW 12.7 mph 20.7 mph N/A   Overcast
10:53 AM 68.0 °F 52.0 °F 56% 29.72 in 10.0 mi NW 10.4 mph 26.5 mph N/A   Overcast
11:53 AM 68.0 °F 52.0 °F 56% 29.73 in 10.0 mi NW 16.1 mph 31.1 mph N/A   Overcast
12:53 PM 69.1 °F 52.0 °F 54% 29.74 in 10.0 mi NW 10.4 mph 20.7 mph N/A   Mostly Cloudy
1:53 PM 73.0 °F 52.0 °F 48% 29.75 in 10.0 mi NW 12.7 mph 23.0 mph N/A   Partly Cloudy
2:53 PM 72.0 °F 51.1 °F 48% 29.75 in 10.0 mi NW 15.0 mph 23.0 mph N/A   Mostly Cloudy
3:53 PM 72.0 °F 48.9 °F 44% 29.75 in 10.0 mi NW 13.8 mph 24.2 mph N/A   Mostly Cloudy
4:53 PM 72.0 °F 48.9 °F 44% 29.76 in 10.0 mi NNW 13.8 mph 23.0 mph N/A   Mostly Cloudy
5:53 PM 72.0 °F 48.9 °F 44% 29.78 in 10.0 mi NNW 16.1 mph 25.3 mph N/A   Overcast
6:53 PM 72.0 °F 48.9 °F 44% 29.78 in 10.0 mi NNW 13.8 mph 23.0 mph N/A   Scattered Clouds
7:53 PM 71.1 °F 48.0 °F 44% 29.81 in 10.0 mi NNW 10.4 mph 19.6 mph N/A   Clear
8:53 PM 68.0 °F 48.0 °F 49% 29.82 in 10.0 mi NW 6.9 mph - N/A   Clear
9:53 PM 66.0 °F 50.0 °F 56% 29.84 in 10.0 mi WNW 3.5 mph - N/A   Clear
10:53 PM 60.1 °F 53.1 °F 78% 29.84 in 10.0 mi Calm Calm - N/A   Clear
11:53 PM 59.0 °F 53.1 °F 81% 29.83 in 10.0 mi Calm Calm - N/A   Clear